<?xml version="1.0" encoding="UTF-8" standalone="no" ?>
<gpx xmlns="http://www.topografix.com/GPX/1/1" xmlns:xsi="http://www.w3.org/2001/XMLSchema-instance" xsi:schemaLocation="http://www.topografix.com/GPX/1/1 http://www.topografix.com/GPX/1/1/gpx.xsd" version="1.1" creator="VisuGPX - https://www.visugpx.com">
  <metadata>
    <name>Abndance plainejoux chapelledabondance9km+750</name>
  </metadata>
  <wpt lat="46.28025" lon="6.71988">
    <ele>919.1</ele>
    <name><![CDATA[Abndance plainejoux chapelledabondance9km+750]]></name>
    <type><![CDATA[Generic]]></type>
  </wpt>
  <trk>
    <name><![CDATA[Abndance plainejoux chapelledabondance9km+750]]></name>
    <extensions>
      <line xmlns="http://www.topografix.com/GPX/gpx_style/0/2">
        <color>0000FF</color>
        <width>4</width>
      </line>
    </extensions>
    <trkseg>
      <trkpt lat="46.28025" lon="6.71988">
        <ele>919.1</ele>
        <time>2022-04-28T18:11:41Z</time>
      </trkpt>
      <trkpt lat="46.27933" lon="6.72035">
        <ele>923.4</ele>
        <time>2022-04-28T18:11:44Z</time>
      </trkpt>
      <trkpt lat="46.27867" lon="6.72085">
        <ele>925.8</ele>
        <time>2022-04-28T18:11:46Z</time>
      </trkpt>
      <trkpt lat="46.27852" lon="6.72138">
        <ele>926.6</ele>
        <time>2022-04-28T18:11:48Z</time>
      </trkpt>
      <trkpt lat="46.27771" lon="6.72179">
        <ele>937</ele>
        <time>2022-04-28T18:12:01Z</time>
      </trkpt>
      <trkpt lat="46.2763" lon="6.72231">
        <ele>965</ele>
        <time>2022-04-28T18:12:15Z</time>
      </trkpt>
      <trkpt lat="46.27605" lon="6.72263">
        <ele>971.3</ele>
        <time>2022-04-28T18:12:35Z</time>
      </trkpt>
      <trkpt lat="46.27634" lon="6.72256">
        <ele>970.6</ele>
        <time>2022-04-28T18:12:40Z</time>
      </trkpt>
      <trkpt lat="46.27661" lon="6.72291">
        <ele>976.3</ele>
        <time>2022-04-28T18:12:53Z</time>
      </trkpt>
      <trkpt lat="46.27688" lon="6.72338">
        <ele>1005.5</ele>
        <time>2022-04-28T18:13:11Z</time>
      </trkpt>
      <trkpt lat="46.27619" lon="6.72402">
        <ele>1015.8</ele>
        <time>2022-04-28T18:13:23Z</time>
      </trkpt>
      <trkpt lat="46.27606" lon="6.72468">
        <ele>1037.6</ele>
        <time>2022-04-28T18:13:32Z</time>
      </trkpt>
      <trkpt lat="46.27655" lon="6.72506">
        <ele>1064.1</ele>
        <time>2022-04-28T18:13:43Z</time>
      </trkpt>
      <trkpt lat="46.27702" lon="6.72525">
        <ele>1076.5</ele>
        <time>2022-04-28T18:14:00Z</time>
      </trkpt>
      <trkpt lat="46.27762" lon="6.726">
        <ele>1106.9</ele>
        <time>2022-04-28T18:14:10Z</time>
      </trkpt>
      <trkpt lat="46.27786" lon="6.72737">
        <ele>1132.2</ele>
        <time>2022-04-28T18:14:12Z</time>
      </trkpt>
      <trkpt lat="46.27866" lon="6.72995">
        <ele>1165.9</ele>
        <time>2022-04-28T18:14:17Z</time>
      </trkpt>
      <trkpt lat="46.27899" lon="6.73081">
        <ele>1153.4</ele>
        <time>2022-04-28T18:14:20Z</time>
      </trkpt>
      <trkpt lat="46.27845" lon="6.73227">
        <ele>1180.6</ele>
        <time>2022-04-28T18:14:30Z</time>
      </trkpt>
      <trkpt lat="46.27866" lon="6.73398">
        <ele>1204.4</ele>
        <time>2022-04-28T18:14:38Z</time>
      </trkpt>
      <trkpt lat="46.27866" lon="6.73549">
        <ele>1228</ele>
        <time>2022-04-28T18:14:49Z</time>
      </trkpt>
      <trkpt lat="46.27819" lon="6.73652">
        <ele>1243.9</ele>
        <time>2022-04-28T18:15:06Z</time>
      </trkpt>
      <trkpt lat="46.27736" lon="6.73549">
        <ele>1284</ele>
        <time>2022-04-28T18:15:14Z</time>
      </trkpt>
      <trkpt lat="46.27641" lon="6.73484">
        <ele>1316.9</ele>
        <time>2022-04-28T18:15:27Z</time>
      </trkpt>
      <trkpt lat="46.2759" lon="6.73381">
        <ele>1331</ele>
        <time>2022-04-28T18:15:30Z</time>
      </trkpt>
      <trkpt lat="46.27537" lon="6.73301">
        <ele>1346.2</ele>
        <time>2022-04-28T18:15:44Z</time>
      </trkpt>
      <trkpt lat="46.2749" lon="6.73313">
        <ele>1354.6</ele>
        <time>2022-04-28T18:15:55Z</time>
      </trkpt>
      <trkpt lat="46.27402" lon="6.73373">
        <ele>1342.7</ele>
        <time>2022-04-28T18:16:00Z</time>
      </trkpt>
      <trkpt lat="46.2737" lon="6.73433">
        <ele>1345.9</ele>
        <time>2022-04-28T18:16:06Z</time>
      </trkpt>
      <trkpt lat="46.2733" lon="6.73434">
        <ele>1335.4</ele>
        <time>2022-04-28T18:16:18Z</time>
      </trkpt>
      <trkpt lat="46.27278" lon="6.73426">
        <ele>1326.7</ele>
        <time>2022-04-28T18:16:35Z</time>
      </trkpt>
      <trkpt lat="46.27282" lon="6.73479">
        <ele>1329.5</ele>
        <time>2022-04-28T18:16:37Z</time>
      </trkpt>
      <trkpt lat="46.27317" lon="6.73526">
        <ele>1336.9</ele>
        <time>2022-04-28T18:16:57Z</time>
      </trkpt>
      <trkpt lat="46.27377" lon="6.73668">
        <ele>1360</ele>
        <time>2022-04-28T18:16:59Z</time>
      </trkpt>
      <trkpt lat="46.27388" lon="6.73726">
        <ele>1367.7</ele>
        <time>2022-04-28T18:17:14Z</time>
      </trkpt>
      <trkpt lat="46.27407" lon="6.73782">
        <ele>1380.5</ele>
        <time>2022-04-28T18:17:25Z</time>
      </trkpt>
      <trkpt lat="46.27421" lon="6.7382">
        <ele>1388</ele>
        <time>2022-04-28T18:17:38Z</time>
      </trkpt>
      <trkpt lat="46.2746" lon="6.7384">
        <ele>1394.2</ele>
        <time>2022-04-28T18:17:43Z</time>
      </trkpt>
      <trkpt lat="46.27454" lon="6.73978">
        <ele>1408.4</ele>
        <time>2022-04-28T18:17:48Z</time>
      </trkpt>
      <trkpt lat="46.27511" lon="6.74171">
        <ele>1396.4</ele>
        <time>2022-04-28T18:17:53Z</time>
      </trkpt>
      <trkpt lat="46.27555" lon="6.74368">
        <ele>1393</ele>
        <time>2022-04-28T18:18:07Z</time>
      </trkpt>
      <trkpt lat="46.27609" lon="6.74621">
        <ele>1391.7</ele>
        <time>2022-04-28T18:18:17Z</time>
      </trkpt>
      <trkpt lat="46.27511" lon="6.74759">
        <ele>1394.7</ele>
        <time>2022-04-28T18:18:19Z</time>
      </trkpt>
      <trkpt lat="46.27466" lon="6.74922">
        <ele>1411.2</ele>
        <time>2022-04-28T18:18:33Z</time>
      </trkpt>
      <trkpt lat="46.27523" lon="6.75016">
        <ele>1408.3</ele>
        <time>2022-04-28T18:18:52Z</time>
      </trkpt>
      <trkpt lat="46.2765" lon="6.75025">
        <ele>1392.2</ele>
        <time>2022-04-28T18:19:01Z</time>
      </trkpt>
      <trkpt lat="46.278" lon="6.75275">
        <ele>1410.2</ele>
        <time>2022-04-28T18:19:05Z</time>
      </trkpt>
      <trkpt lat="46.27827" lon="6.75447">
        <ele>1411.6</ele>
        <time>2022-04-28T18:19:16Z</time>
      </trkpt>
      <trkpt lat="46.27907" lon="6.75649">
        <ele>1397.4</ele>
        <time>2022-04-28T18:19:30Z</time>
      </trkpt>
      <trkpt lat="46.27999" lon="6.7579">
        <ele>1400.7</ele>
        <time>2022-04-28T18:19:45Z</time>
      </trkpt>
      <trkpt lat="46.28013" lon="6.76082">
        <ele>1397</ele>
        <time>2022-04-28T18:20:05Z</time>
      </trkpt>
      <trkpt lat="46.27975" lon="6.76219">
        <ele>1411.3</ele>
        <time>2022-04-28T18:20:18Z</time>
      </trkpt>
      <trkpt lat="46.27996" lon="6.76288">
        <ele>1414.2</ele>
        <time>2022-04-28T18:20:22Z</time>
      </trkpt>
      <trkpt lat="46.28028" lon="6.76322">
        <ele>1414.2</ele>
        <time>2022-04-28T18:20:24Z</time>
      </trkpt>
      <trkpt lat="46.28055" lon="6.76387">
        <ele>1412.7</ele>
        <time>2022-04-28T18:20:44Z</time>
      </trkpt>
      <trkpt lat="46.2812" lon="6.76498">
        <ele>1401.7</ele>
        <time>2022-04-28T18:20:57Z</time>
      </trkpt>
      <trkpt lat="46.28182" lon="6.76726">
        <ele>1387.6</ele>
        <time>2022-04-28T18:21:10Z</time>
      </trkpt>
      <trkpt lat="46.28233" lon="6.7679">
        <ele>1380</ele>
        <time>2022-04-28T18:21:27Z</time>
      </trkpt>
      <trkpt lat="46.28274" lon="6.7694">
        <ele>1375.5</ele>
        <time>2022-04-28T18:21:37Z</time>
      </trkpt>
      <trkpt lat="46.28206" lon="6.77146">
        <ele>1368.9</ele>
        <time>2022-04-28T18:21:43Z</time>
      </trkpt>
      <trkpt lat="46.28206" lon="6.77301">
        <ele>1359.7</ele>
        <time>2022-04-28T18:22:02Z</time>
      </trkpt>
      <trkpt lat="46.28191" lon="6.77418">
        <ele>1359.8</ele>
        <time>2022-04-28T18:22:15Z</time>
      </trkpt>
      <trkpt lat="46.28242" lon="6.7753">
        <ele>1349.3</ele>
        <time>2022-04-28T18:22:33Z</time>
      </trkpt>
      <trkpt lat="46.28288" lon="6.7753">
        <ele>1344.6</ele>
        <time>2022-04-28T18:22:53Z</time>
      </trkpt>
      <trkpt lat="46.28305" lon="6.77564">
        <ele>1341.4</ele>
        <time>2022-04-28T18:23:04Z</time>
      </trkpt>
      <trkpt lat="46.28285" lon="6.77601">
        <ele>1339.5</ele>
        <time>2022-04-28T18:23:22Z</time>
      </trkpt>
      <trkpt lat="46.28288" lon="6.77684">
        <ele>1333.8</ele>
        <time>2022-04-28T18:23:31Z</time>
      </trkpt>
      <trkpt lat="46.28222" lon="6.77757">
        <ele>1320</ele>
        <time>2022-04-28T18:23:36Z</time>
      </trkpt>
      <trkpt lat="46.28218" lon="6.77832">
        <ele>1315.1</ele>
        <time>2022-04-28T18:23:54Z</time>
      </trkpt>
      <trkpt lat="46.28231" lon="6.77903">
        <ele>1314</ele>
        <time>2022-04-28T18:23:56Z</time>
      </trkpt>
      <trkpt lat="46.28329" lon="6.77993">
        <ele>1295.1</ele>
        <time>2022-04-28T18:24:04Z</time>
      </trkpt>
      <trkpt lat="46.28394" lon="6.78047">
        <ele>1286.3</ele>
        <time>2022-04-28T18:24:16Z</time>
      </trkpt>
      <trkpt lat="46.28442" lon="6.78171">
        <ele>1276.6</ele>
        <time>2022-04-28T18:24:27Z</time>
      </trkpt>
      <trkpt lat="46.28476" lon="6.78272">
        <ele>1276.4</ele>
        <time>2022-04-28T18:24:41Z</time>
      </trkpt>
      <trkpt lat="46.28499" lon="6.78255">
        <ele>1266.5</ele>
        <time>2022-04-28T18:24:45Z</time>
      </trkpt>
      <trkpt lat="46.28694" lon="6.7831">
        <ele>1217.6</ele>
        <time>2022-04-28T18:25:02Z</time>
      </trkpt>
      <trkpt lat="46.28745" lon="6.78293">
        <ele>1202.4</ele>
        <time>2022-04-28T18:25:05Z</time>
      </trkpt>
      <trkpt lat="46.28805" lon="6.7831">
        <ele>1180.4</ele>
        <time>2022-04-28T18:25:09Z</time>
      </trkpt>
      <trkpt lat="46.28838" lon="6.78366">
        <ele>1168.2</ele>
        <time>2022-04-28T18:25:17Z</time>
      </trkpt>
      <trkpt lat="46.28863" lon="6.78478">
        <ele>1154.9</ele>
        <time>2022-04-28T18:25:32Z</time>
      </trkpt>
      <trkpt lat="46.2888" lon="6.78566">
        <ele>1141.3</ele>
        <time>2022-04-28T18:25:42Z</time>
      </trkpt>
      <trkpt lat="46.28897" lon="6.78682">
        <ele>1124.3</ele>
        <time>2022-04-28T18:25:54Z</time>
      </trkpt>
      <trkpt lat="46.28936" lon="6.78651">
        <ele>1105.3</ele>
        <time>2022-04-28T18:26:13Z</time>
      </trkpt>
      <trkpt lat="46.28951" lon="6.78598">
        <ele>1097.9</ele>
        <time>2022-04-28T18:26:30Z</time>
      </trkpt>
      <trkpt lat="46.28963" lon="6.78531">
        <ele>1092.2</ele>
        <time>2022-04-28T18:26:36Z</time>
      </trkpt>
      <trkpt lat="46.28997" lon="6.78501">
        <ele>1070.9</ele>
        <time>2022-04-28T18:26:47Z</time>
      </trkpt>
      <trkpt lat="46.29026" lon="6.78445">
        <ele>1053.7</ele>
        <time>2022-04-28T18:27:06Z</time>
      </trkpt>
      <trkpt lat="46.29105" lon="6.78368">
        <ele>1014.4</ele>
        <time>2022-04-28T18:27:15Z</time>
      </trkpt>
      <trkpt lat="46.29167" lon="6.78379">
        <ele>994.7</ele>
        <time>2022-04-28T18:27:28Z</time>
      </trkpt>
      <trkpt lat="46.292" lon="6.7833">
        <ele>993.9</ele>
        <time>2022-04-28T18:27:31Z</time>
      </trkpt>
      <trkpt lat="46.29274" lon="6.78287">
        <ele>992.8</ele>
        <time>2022-04-28T18:27:46Z</time>
      </trkpt>
      <trkpt lat="46.29268" lon="6.78175">
        <ele>992.9</ele>
        <time>2022-04-28T18:28:05Z</time>
      </trkpt>
      <trkpt lat="46.2928" lon="6.78119">
        <ele>992.8</ele>
        <time>2022-04-28T18:28:11Z</time>
      </trkpt>
      <trkpt lat="46.29324" lon="6.78068">
        <ele>989.8</ele>
        <time>2022-04-28T18:28:30Z</time>
      </trkpt>
      <trkpt lat="46.29597" lon="6.78003">
        <ele>1001.6</ele>
        <time>2022-04-28T18:28:34Z</time>
      </trkpt>
    </trkseg>
  </trk>
</gpx>